Location: Chrome
(40.5765°N, 74.2163°W)
Time: 16:45:51
(UTC+00:00)

Cosmos 1110 Rocket - Pass Details

Date: 06 December 2019
Orbit: 752 x 781 km, 74.0° (Epoch: 20 January)

Event Time Altitude Azimuth Distance (km) Brightness Sun altitude
Rises 22:01:01 0° 338° (NNW) 3,215 7.2 -6.1°
Reaches altitude 10° 22:03:24 10° 336° (NNW) 2,288 6.5 -6.5°
Maximum altitude 22:08:32 69° 254° (WSW) 812 4.4 -7.4°
Drops below altitude 10° 22:13:42 10° 172° (S) 2,288 6.7 -8.3°
Sets 22:16:04 0° 169° (S) 3,214 7.4 -8.7°
